Theta_e
311 312 311 310 309 308 304 294 290 305 310 297 295 291 294 299 298 302 301 303 302 301 303 301 302 301 303 309 308 301 300 295 295 298 305 306 304 301 298 294 292 293 293 296
309 310 310 309 308 309 303 291 293 303 303 292 293 298 300 301 299 298 299 301 304 305 302 299 304 306 312 309 308 304 303 294 293 294 298 301 303 302 300 297 295 293 293 297
309 310 309 309 308 308 305 293 291 298 299 295 295 294 297 299 306 303 304 303 305 303 302 305 302 303 309 311 309 318 310 294 295 294 295 300 298 302 302 299 294 294 296 300
309 309 309 309 308 308 305 295 295 294 290 293 292 292 298 300 301 306 304 301 306 304 298 301 303 309 310 312 316 312 302 295 297 299 304 305 304 304 302 298 299 298 299 301
309 309 309 309 308 308 299 295 294 295 292 292 294 294 295 298 299 302 301 303 307 305 300 306 305 305 302 304 307 301 299 296 299 300 303 305 302 304 305 305 304 303 302 304
309 308 309 309 308 307 297 298 300 296 292 291 292 293 296 297 299 305 309 307 306 304 306 309 309 308 307 308 303 302 300 298 295 294 301 302 300 303 304 306 310 306 299 303
309 308 308 309 309 308 304 300 300 293 289 291 294 295 299 297 300 298 308 308 303 311 310 310 309 307 306 309 306 306 299 297 294 295 295 291 300 309 312 310 310 310 308 310
309 309 309 308 309 309 302 301 300 294 288 294 295 296 296 297 300 301 304 306 307 307 304 301 300 302 303 307 308 307 307 303 299 292 291 296 304 307 309 307 307 314 311 312
309 308 309 308 309 309 303 302 304 298 290 290 297 294 297 292 293 299 303 306 306 307 300 300 295 296 301 302 303 304 307 306 303 299 294 290 300 312 315 312 301 313 314 313
308 308 308 308 308 309 305 301 305 298 293 295 294 292 292 295 293 296 299 298 302 308 298 294 294 295 302 298 297 298 301 301 297 297 295 298 309 315 315 298 301 313 314 312
308 308 308 308 308 308 304 302 306 302 298 298 299 299 295 295 295 292 297 298 302 305 299 296 295 294 298 300 304 302 303 301 299 299 296 293 314 313 308 310 312 315 316 316
307 308 308 308 308 308 307 300 305 306 297 297 302 303 303 302 302 295 292 293 298 301 298 301 300 300 301 299 298 307 303 306 305 304 302 310 314 312 313 313 312 315 314 316
307 307 307 307 308 307 306 301 300 299 296 296 295 297 302 304 304 303 293 296 298 300 301 298 302 299 303 301 302 305 310 313 307 308 311 314 316 316 316 317 316 317 317 318
307 306 307 307 308 307 307 299 301 298 297 289 293 303 298 303 302 302 301 298 298 299 299 295 297 298 303 302 305 306 309 308 309 308 314 314 315 315 316 318 319 319 318 318
306 306 307 307 308 308 305 301 302 302 298 292 292 300 302 303 303 304 304 299 297 297 294 293 293 301 300 299 303 302 307 307 305 303 312 310 311 315 316 312 313 315 313 312
306 306 307 307 308 308 301 298 301 303 301 291 289 299 298 300 302 301 300 301 299 298 293 294 296 301 300 296 296 302 309 312 311 310 314 313 315 315 312 309 309 311 310 308
306 306 307 307 308 299 296 297 303 305 301 294 292 294 299 302 300 301 299 299 299 297 293 293 293 295 299 299 294 298 307 307 311 314 309 303 305 303 309 312 314 313 312 311
306 307 307 308 307 304 295 301 305 303 297 295 291 293 295 299 295 296 301 297 298 297 295 294 294 296 294 294 298 299 303 306 306 306 307 305 307 308 308 310 310 308 307 308
306 306 307 301 299 294 298 312 309 302 297 291 294 290 290 297 296 298 298 300 295 298 293 292 294 293 295 294 299 302 303 303 302 305 306 306 305 304 305 306 307 304 304 305
306 301 297 292 298 313 308 297 295 295 296 294 291 295 291 293 295 294 297 297 295 292 295 297 300 297 303 304 304 304 304 305 305 303 302 303 302 304 305 305 306 305 305 306
296 294 296 303 309 297 294 289 292 294 291 293 293 293 291 298 294 294 296 293 295 291 295 294 296 297 303 306 307 308 309 309 307 306 304 304 303 304 304 305 307 307 306 305
300 300 302 300 296 291 288 287 292 292 289 293 292 293 297 298 299 296 297 293 294 290 297 295 296 303 307 308 309 309 309 310 309 309 307 308 309 308 307 306 307 309 309 309
303 298 294 293 289 280 285 282 287 289 293 293 293 292 295 296 296 296 294 292 290 296 293 297 301 305 309 308 309 309 309 311 311 310 311 311 312 312 310 310 310 311 311 313
295 291 284 286 283 288 289 290 294 297 297 295 296 295 294 296 294 294 291 294 295 291 291 294 300 302 305 306 308 308 308 310 310 310 311 313 313 312 313 313 312 312 311 309
292 292 285 289 293 294 297 297 297 298 297 296 295 296 296 294 293 294 293 292 291 294 295 299 302 303 305 305 308 307 306 308 309 311 311 311 312 311 310 311 309 312 311 309
293 293 291 294 293 294 295 293 296 297 296 296 295 293 292 292 292 291 291 292 291 295 299 301 303 304 305 304 306 308 307 307 307 307 310 310 309 308 308 310 310 311 312 311
294 291 296 296 295 294 293 295 295 299 296 293 294 290 288 294 289 290 295 295 297 300 300 302 303 303 305 306 307 307 307 307 307 307 308 308 310 310 309 305 309 310 311 311
Wind_Speed
18 19 20 21 22 27 7 4 5 3 4 4 3 3 5 4 10 9 9 7 14 12 16 24 15 22 14 24 25 13 11 8 14 18 12 9 9 11 8 8 6 2 6 9
19 19 20 20 20 17 7 5 6 7 5 3 4 7 9 8 10 11 7 10 14 13 14 12 9 7 9 9 25 21 13 6 8 10 8 4 9 6 7 6 6 7 7 7
17 18 19 19 20 17 5 3 5 6 5 3 1 5 7 9 7 11 12 19 19 13 14 7 5 7 6 3 25 31 14 6 11 15 10 5 6 8 8 9 6 7 7 5
16 17 18 19 21 23 1 3 5 1 5 4 9 3 6 13 15 7 4 10 2 6 9 6 3 5 8 2 7 21 12 11 7 9 18 10 15 14 9 6 9 10 9 11
15 16 17 18 20 25 1 2 4 6 5 7 5 5 3 11 14 9 7 5 8 9 3 4 2 0 3 5 9 4 6 8 10 17 9 8 8 6 11 8 6 1 7 7
15 15 14 15 15 12 3 4 5 2 5 5 5 1 10 17 17 9 2 1 3 3 5 11 10 9 6 8 4 5 11 8 6 9 8 7 4 5 5 1 5 5 8 13
14 15 13 13 11 8 2 3 4 2 5 3 5 14 16 17 18 11 7 5 3 4 5 10 3 7 6 4 4 4 6 9 4 6 5 5 8 2 13 11 5 7 6 8
15 16 13 12 11 10 4 3 3 3 5 4 13 15 10 16 15 5 3 8 3 6 3 5 7 6 7 6 7 9 2 6 6 7 5 5 3 4 7 8 5 6 3 7
16 14 14 11 11 10 6 6 6 2 2 5 6 10 5 5 6 8 5 9 9 6 3 4 1 3 3 3 7 3 10 9 7 3 7 5 2 6 5 8 7 8 6 8
15 15 14 13 11 10 4 5 4 2 3 7 2 3 5 5 5 5 5 10 10 8 5 2 3 3 0 3 4 6 6 7 5 3 4 2 6 8 2 11 8 6 5 7
14 14 13 12 10 10 4 7 8 3 3 10 7 4 3 5 3 4 7 4 7 6 7 0 3 3 6 3 3 5 5 4 4 4 5 5 15 8 9 5 3 7 9 5
11 13 13 11 10 7 7 4 5 4 4 8 7 17 18 14 16 3 4 2 0 2 3 4 3 4 4 4 5 4 3 6 5 5 4 6 8 8 1 1 5 7 9 8
10 10 9 10 9 7 5 4 4 4 3 7 2 8 9 9 9 6 2 3 2 3 5 2 4 3 2 3 1 6 5 3 5 7 5 6 5 3 6 8 8 7 7 4
8 9 10 10 11 7 8 2 3 2 4 3 8 4 4 2 4 5 5 4 4 2 2 1 2 2 3 3 4 3 5 2 7 3 2 2 4 5 3 6 8 7 8 4
8 9 10 10 10 8 6 4 5 5 2 4 7 13 9 8 5 5 4 4 2 1 2 1 3 3 4 4 4 3 2 7 6 6 4 5 6 5 5 10 4 1 1 7
8 9 8 10 8 8 3 2 1 2 0 0 5 5 4 5 4 5 3 2 4 3 3 3 3 3 5 4 1 6 3 3 8 6 7 6 7 6 4 7 7 7 8 7
7 9 8 9 7 0 3 2 1 2 3 0 5 5 5 5 3 2 1 1 2 3 1 1 1 2 5 3 3 4 1 6 8 6 4 8 5 3 8 10 9 8 7 8
8 8 8 9 8 7 5 5 13 4 1 2 3 5 4 4 1 2 3 1 2 2 2 2 2 4 4 4 3 5 6 12 12 9 10 6 8 12 10 8 10 11 9 8
6 7 8 3 1 2 5 5 8 2 3 2 3 2 4 1 3 3 2 3 1 2 1 2 4 5 8 4 5 12 8 8 5 11 13 12 11 9 10 10 12 8 9 7
4 2 1 3 4 2 2 4 1 0 3 3 3 3 4 2 2 2 2 1 2 2 4 3 6 4 4 8 8 7 9 9 11 14 12 11 9 8 7 6 6 6 7 6
2 2 2 4 8 3 1 2 2 3 3 4 5 4 2 3 3 2 1 2 1 2 3 6 4 4 5 7 9 9 10 10 9 7 4 5 4 5 7 7 6 7 8 5
2 3 4 3 2 1 0 3 4 3 4 2 3 4 4 3 2 3 4 1 3 2 2 5 4 2 4 8 8 7 7 7 6 6 5 5 5 4 2 3 3 5 7 6
2 2 3 3 2 5 2 2 3 2 3 1 1 3 1 5 4 3 4 5 2 1 5 5 3 2 3 5 5 6 5 6 5 6 5 5 5 5 3 5 5 6 3 4
2 3 5 2 3 3 1 1 2 5 2 4 4 3 3 2 5 2 4 3 2 5 6 3 1 2 5 5 5 5 7 7 6 6 6 5 6 6 7 6 7 4 4 5
2 2 4 2 5 2 4 3 1 5 3 4 4 4 3 4 4 2 2 3 5 5 3 3 2 3 5 6 6 5 5 5 5 5 6 6 6 5 4 6 6 7 4 3
2 1 3 4 4 6 5 4 2 4 4 3 4 3 4 3 1 4 4 4 5 2 1 3 3 4 4 3 4 4 3 4 5 5 4 5 6 6 6 7 6 6 6 3
4 3 2 2 4 4 4 3 4 4 4 3 3 4 1 1 2 5 4 3 2 2 2 2 2 4 5 5 5 6 6 7 7 6 6 6 6 5 5 6 6 6 5 2
Wind_Direction
333 335 339 341 342 339 22 356 325 339 136 99 189 211 224 243 258 288 286 277 263 269 298 302 268 219 201 192 203 197 196 171 235 247 248 237 168 173 146 137 233 153 162 264
333 335 337 341 341 353 333 319 267 286 127 268 255 278 269 258 265 246 252 256 267 279 284 279 238 201 218 209 202 201 194 212 237 300 333 343 183 169 145 109 91 184 139 255
331 333 337 338 335 336 331 306 322 311 27 303 351 5 286 283 271 272 279 278 276 289 271 245 280 282 273 213 204 209 156 143 191 224 213 187 200 174 160 140 137 173 204 193
324 331 336 337 335 331 177 219 249 284 321 311 323 270 272 294 304 270 255 294 77 337 271 294 323 321 324 301 251 215 157 184 157 215 222 213 210 192 160 149 182 166 216 180
313 324 334 337 340 335 142 309 8 343 276 281 299 280 283 325 308 260 276 253 341 344 295 280 267 311 304 277 325 246 175 222 153 226 235 221 171 204 169 151 137 12 157 212
309 316 325 336 343 355 343 326 330 88 279 309 320 21 332 310 317 300 93 292 319 27 311 292 231 225 226 232 272 294 153 144 120 216 157 120 85 134 232 322 54 181 175 222
301 301 312 324 337 357 291 286 284 290 276 314 304 320 312 309 304 269 276 193 176 253 289 299 300 250 322 288 261 221 157 124 109 174 106 136 233 210 107 93 3 332 253 181
306 300 299 310 322 324 301 265 280 281 284 325 299 343 310 309 318 303 343 2 1 295 328 6 351 352 2 297 55 346 17 108 91 131 140 201 34 55 151 133 333 319 186 90
300 302 305 297 309 321 312 267 214 294 290 252 2 313 313 311 324 317 313 344 325 3 82 79 72 170 242 293 324 358 49 60 97 79 118 156 230 293 356 97 17 325 70 94
291 294 298 298 304 316 314 273 288 253 269 266 61 278 292 300 305 275 320 329 346 30 4 73 152 260 174 342 4 349 11 7 56 71 120 312 284 298 226 74 222 312 64 54
276 291 292 291 298 311 330 283 275 248 273 284 248 283 331 328 324 314 303 351 355 25 25 239 275 180 222 115 38 97 77 50 347 358 55 31 352 314 85 199 35 59 37 70
282 288 292 292 296 299 315 276 317 311 212 257 296 268 257 241 249 240 300 197 32 232 9 341 3 325 14 155 100 325 57 144 153 94 149 255 312 48 8 164 97 56 62 28
271 289 302 298 298 287 289 278 282 319 290 289 292 254 251 210 227 201 171 312 333 334 170 196 242 293 52 61 171 116 17 68 100 119 192 281 316 7 358 49 69 46 55 28
269 285 291 291 298 287 288 234 275 295 265 274 281 309 327 239 199 223 186 214 337 289 74 232 248 265 42 49 174 73 146 163 97 253 77 54 356 316 150 84 61 42 18 15
271 279 285 291 297 301 293 238 227 213 252 292 284 307 259 205 197 242 281 167 149 298 337 78 255 262 30 5 44 42 149 179 176 203 142 119 256 257 265 87 99 318 37 350
266 288 294 302 309 331 292 286 40 164 103 156 294 283 258 185 205 244 259 173 193 186 177 237 276 227 96 77 135 294 271 150 133 142 185 204 207 8 335 84 65 57 44 38
265 290 285 294 291 83 233 263 247 354 2 39 293 286 266 192 212 255 148 264 213 158 200 271 214 311 89 64 93 268 22 18 68 92 124 55 52 36 24 39 32 48 55 43
274 291 283 286 281 282 293 241 239 158 172 270 274 272 334 162 230 275 167 143 18 316 192 6 120 346 63 84 18 104 97 74 61 68 70 94 67 42 33 42 35 37 24 15
278 293 298 313 160 243 245 130 112 121 147 259 276 277 285 34 254 223 14 115 96 268 106 281 79 4 28 6 75 61 47 87 98 60 50 41 45 28 18 18 17 18 357 3
290 344 300 294 234 249 93 13 81 278 224 234 240 263 284 84 356 333 75 37 164 140 239 86 87 88 9 26 37 42 46 57 51 52 28 19 16 15 4 357 340 338 323 328
360 260 242 272 296 34 311 271 179 212 241 214 232 217 247 317 63 308 132 175 314 85 270 108 84 45 346 1 35 24 33 46 52 72 57 25 349 332 324 319 329 336 321 308
261 272 290 291 352 1 260 247 274 207 232 230 199 238 194 297 70 63 348 58 30 83 284 78 79 39 315 360 12 15 28 28 32 39 20 5 355 329 341 285 291 298 289 290
359 291 299 33 297 27 253 275 290 267 300 280 112 28 51 352 28 47 46 44 301 311 50 65 73 349 342 334 340 346 13 24 22 7 6 3 327 331 345 321 306 297 319 329
295 308 335 135 300 259 328 20 314 274 286 44 77 29 67 321 28 10 53 290 31 40 54 79 319 330 326 335 334 3 0 12 360 342 344 355 4 359 356 337 332 299 2 12
277 290 340 324 296 305 263 215 355 302 347 27 31 26 60 1 40 12 26 35 59 42 63 12 296 314 23 3 349 7 8 4 10 3 7 357 346 350 317 356 328 310 18 41
329 315 335 341 5 335 353 15 24 311 346 13 42 52 38 4 60 26 10 42 51 71 342 285 326 347 332 298 293 324 341 356 342 345 339 336 338 338 354 326 323 347 38 17
360 295 70 245 278 264 295 334 324 332 52 20 32 50 339 5 27 47 30 62 160 181 308 309 305 301 310 309 319 333 345 337 326 327 329 309 308 336 341 330 314 325 339 13